Location: Mexico
(19.4000°N, 99.1500°W)
Time: 21:18:07
(UTC-06:00)

ISS - Pass Details

Date: 17 November 2019
Orbit: 412 x 421 km, 51.6° (Epoch: 12 November)

Event Time Altitude Azimuth Distance (km) Brightness Sun altitude
Exits shadow 05:02:58 41° 112° (ESE) 613 -2.5 -24.1°
Drops below altitude 10° 05:05:21 10° 132° (SE) 1,485 -0.2 -23.5°
Sets 05:07:27 0° 136° (SE) 2,345 0.9 -23.0°
